Location: Gloden
(48.4833°N, 15.3167°E)
Time: 02:48:34
(UTC+00:00)

Cosmos 1674 Rocket - Pass Details

Date: 15 December 2019
Orbit: 602 x 631 km, 82.5° (Epoch: 22 January)

Event Time Altitude Azimuth Distance (km) Brightness Sun altitude
Exits shadow 04:39:57 12° 353° (N) 1,833 5.8 -19.4°
Maximum altitude 04:43:59 79° 81° (E) 621 3.6 -18.7°
Drops below altitude 10° 04:48:16 10° 168° (SSE) 1,943 6.4 -18.0°
Sets 04:50:28 0° 169° (S) 2,841 7.3 -17.7°
